#timestamp,LO_Frequency,Hit,StdDev 
1592395215.5,286046997.0,N
1592395235.4,286046999.6,N
1592395255.2,286046998.1,N
1592395275.1,286046998.1,N
1592395276.0,286046998.1,N
1592395295.8,286047000.4,N
1592395315.6,286047000.4,N
1592395335.5,286047002.8,N
1592395355.3,286046998.3,N
1592395375.1,286046996.9,N
1592395395.9,286046999.4,N
1592395415.7,286046998.4,N
1592395435.6,286047001.2,N
1592395455.4,286047000.3,N
1592395475.2,286047000.6,N
1592395495.1,286047001.0,N
1592395496.0,286047001.0,N
1592395515.8,286046998.4,N
1592395535.7,286046998.5,N
1592395555.5,286046998.5,N
1592395575.3,286046998.1,N
1592395595.2,286046999.6,N
1592395615.0,286046999.3,N
1592395615.9,286046999.3,N
1592395635.7,286046998.4,N
1592395655.6,286046998.7,N
1592395675.4,286046998.5,N
1592395695.3,286047001.2,N
1592395715.1,286046998.1,N
1592395716.0,286046998.1,N
1592395735.8,286047000.8,N
1592395755.7,286046998.1,N
1592395775.5,286047000.3,N
1592395795.3,286047000.3,N
1592395815.2,286047000.1,N
1592395835.0,286047002.8,N
1592395835.9,286047002.8,N
1592395855.8,286047000.3,N
1592395875.6,286046998.5,N
1592395895.4,286046998.8,N
1592395915.3,286046997.1,N
1592395935.1,286046999.2,N
1592395955.8,286046998.7,N
1592395975.7,286046998.4,N
1592395995.5,286046998.1,N
1592396015.4,286046998.3,N
1592396035.2,286046998.2,N
1592396055.0,286046998.1,N
1592396055.9,286046998.1,N
1592396075.8,286046998.6,N
1592396095.6,286047000.9,N
1592396115.4,286047000.5,N
1592396135.3,286047002.6,N
1592396155.1,286046999.8,N
1592396175.9,286047002.2,N
1592396195.7,286047000.4,N
1592396215.5,286047001.0,N
1592396235.4,286047000.0,N
1592396255.2,286047000.8,N
1592396275.0,286046999.2,N
1592396275.9,286046999.2,N
1592396295.8,286046996.8,N
1592396315.6,286046997.1,N
1592396335.5,286046997.4,N
1592396355.3,286046995.1,N
1592396375.1,286046995.2,N
1592396395.9,286046995.1,N
1592396415.7,286046997.9,N
1592396435.5,286046999.0,N
1592396455.4,286046999.0,N
1592396475.2,286046998.1,N
1592396495.1,286046998.4,N
1592396496.0,286046998.4,N
1592396515.8,286046999.2,N
1592396535.6,286046999.2,N
1592396555.5,286047001.0,N
1592396575.3,286046998.3,N
1592396595.1,286047000.3,N
1592396615.9,286047002.8,N
1592396635.7,286047002.1,N
1592396655.5,286047003.6,N
1592396675.4,286047004.0,N
1592396695.2,286047004.4,N
1592396715.1,286047001.4,N
1592396716.0,286047001.4,N
1592396735.8,286046999.7,N
1592396755.6,286047000.3,N
1592396775.5,286047000.1,N
1592396795.3,286046998.4,N
1592396815.1,286046996.5,N
1592396835.9,286046999.1,N
1592396855.7,286046998.8,N
1592396875.6,286046998.8,N
1592396895.4,286047001.0,N
1592396915.2,286047001.0,N
1592396935.1,286046998.2,N
1592396936.0,286046998.2,N
1592396955.8,286046998.4,N
1592396975.6,286046998.7,N
1592396995.5,286046998.5,N
1592397015.3,286046998.1,N
1592397035.2,286046996.6,N
1592397055.9,286046997.2,N
1592397075.7,286046995.3,N
1592397095.6,286046997.5,N
1592397115.4,286046999.5,N
1592397135.2,286046999.3,N
1592397155.1,286047000.7,N
1592397156.0,286047000.7,N
1592397175.8,286047001.1,N
1592397195.7,286047000.0,N
1592397215.5,286047000.6,N
1592397235.3,286046998.6,N
1592397255.2,286046999.0,N
1592397275.9,286046994.9,Y
1592397295.7,286046994.9,P
1592397315.6,286046993.4,P
1592397335.4,286046993.8,N
1592397355.2,286046994.8,N
1592397375.1,286046992.6,Y
1592397376.0,286046992.6,P
1592397395.8,286046997.2,N
1592397415.7,286046996.5,N
1592397435.5,286046997.0,N
1592397455.3,286046996.9,N
1592397475.2,286046996.7,N
1592397495.0,286046995.4,Y
1592397495.9,286046995.4,P
1592397515.8,286046998.8,P
1592397535.6,286046998.5,N
1592397555.4,286046999.4,N
1592397575.3,286046999.6,N
1592397595.1,286046997.3,N
1592397615.8,286046997.3,N
1592397635.7,286046997.4,N
1592397655.5,286046997.2,N
1592397675.3,286046996.7,N
1592397695.2,286046998.8,N
1592397715.0,286046999.0,N
1592397715.9,286046999.0,N
1592397735.8,286046999.5,N
1592397755.6,286046999.4,N
1592397775.4,286046997.3,N
1592397795.3,286046995.0,Y
1592397815.1,286046998.5,P
1592397835.8,286047001.1,P
1592397855.7,286046999.1,N
1592397875.5,286046998.5,N
1592397895.4,286046998.3,N
1592397915.2,286046998.7,N
1592397935.0,286046996.7,Y
1592397935.9,286046996.7,P
1592397955.8,286046998.7,N
1592397975.6,286046998.7,N
1592397995.5,286046998.8,N
1592398015.3,286047001.2,N
1592398035.1,286047000.7,N
1592398055.9,286046998.1,N
1592398075.7,286046998.5,N
1592398095.5,286046998.1,N
1592398115.4,286046998.3,N
1592398135.2,286047001.2,N
1592398155.0,286047000.8,N
1592398155.9,286047000.8,N
1592398175.8,286046998.2,N
1592398195.6,286047000.3,N
1592398215.5,286047000.3,N
1592398235.3,286046999.8,N
1592398255.1,286046998.2,N
1592398275.9,286047000.9,N
1592398295.7,286047004.4,Y
1592398315.5,286047005.4,P
1592398335.4,286047009.2,P
1592398355.2,286047007.3,N
1592398375.1,286047006.0,N
1592398376.0,286047006.0,N
1592398395.8,286047005.7,N
1592398415.6,286047006.0,N
1592398435.5,286047003.2,N
1592398455.3,286047003.8,N
1592398475.1,286047003.7,N
1592398495.9,286047003.0,N
1592398515.7,286047003.2,N
1592398535.6,286047005.7,N
1592398555.4,286047005.1,N
1592398575.2,286047004.7,N
1592398595.1,286047007.3,Y
1592398596.0,286047007.3,P
1592398615.8,286047002.7,N
1592398635.6,286047002.2,N
1592398655.5,286047000.2,N
1592398675.3,286047000.8,N
1592398695.2,286047000.8,N
1592398715.9,286046998.4,N
1592398735.7,286046998.3,N
1592398755.6,286047000.4,N
1592398775.4,286046998.4,N
1592398795.2,286047000.5,N
